INTELSAT 905 (IS-905)

Last updated on Fri Dec 19 2025 00:02:48 GMT+0000 (Coordinated Universal Time)

1 27438U 02027A 25352.61647856 .00000113 00000+0 00000+0 0 9998 2 27438 6.2996 71.9887 0002653 199.2620 260.9470 1.00272032 49551
UTC large
Height (km)
Speed (km/s)
/
Latitude / Longitude
Inclination (degrees)
Orbital Period (minutes)
Azimuth
Elevation
Range (km)
Doppler Factor

Next 0 passes for location: London (51.5072 / 0.1276)

Sorry there are no passes over London.